Location: *
(44.3683°N, 6.6958°E)
Time: 10:57:39
(UTC+00:00)

ARGOS - Pass Details

Date: 14 October 2019
Orbit: 820 x 835 km, 98.5° (Epoch: 13 November)

Event Time Altitude Azimuth Distance (km) Brightness Sun altitude
Exits shadow 19:34:27 58° 351° (N) 966 3.5 -29.6°
Drops below altitude 10° 19:38:48 10° 347° (NNW) 2,455 6.0 -30.3°
Sets 19:41:10 0° 347° (NNW) 3,394 6.8 -30.7°
